This is the latest recevied weather packets stored in our database for station/object N5TDX. If no packets are shown the sender has not sent any weather packets the latest 10 day(s).
| Time | Temp. | Humidity | Pressure | Rain* | Wind** | Luminosity | Snow |
|---|---|---|---|---|---|---|---|
| 1778015649 | 32.78° C | 41% | 1001.2 hPa | 0 mm | - | - | - |
| 1778015344 | 33.33° C | 39% | 1001.2 hPa | 0 mm | - | - | - |
| 1778015042 | 32.78° C | 38% | 1001.3 hPa | 0 mm | - | - | - |
| 1778014739 | 32.78° C | 39% | 1001.2 hPa | 0 mm | - | - | - |
| 1778014437 | 32.78° C | 40% | 1001.3 hPa | 0 mm | - | - | - |
| 1778014134 | 32.78° C | 38% | 1001.6 hPa | 0 mm | - | - | - |
| 1778013831 | 32.78° C | 40% | 1001.5 hPa | 0 mm | - | - | - |
| 1778013528 | 32.78° C | 43% | 1001.7 hPa | 0 mm | - | - | - |
| 1778013224 | 32.78° C | 45% | 1001.7 hPa | 0 mm | - | - | - |
| 1778012921 | 32.78° C | 46% | 1001.8 hPa | 0 mm | - | - | - |
| 1778012617 | 32.78° C | 45% | 1001.8 hPa | 0 mm | - | - | - |
| 1778012314 | 32.22° C | 46% | 1001.8 hPa | 0 mm | - | - | - |
| 1778012012 | 32.22° C | 46% | 1001.9 hPa | 0 mm | - | - | - |
| 1778011710 | 32.22° C | 45% | 1001.9 hPa | 0 mm | - | - | - |
| 1778011406 | 32.22° C | 45% | 1002 hPa | 0 mm | - | - | - |
| 1778011102 | 32.22° C | 46% | 1001.9 hPa | 0 mm | - | - | - |
| 1778010799 | 32.22° C | 45% | 1002.1 hPa | 0 mm | - | - | - |
| 1778010496 | 32.22° C | 46% | 1002.1 hPa | 0 mm | - | - | - |
| 1778010194 | 32.22° C | 44% | 1002 hPa | 0 mm | - | - | - |
| 1778009888 | 32.22° C | 44% | 1002 hPa | 0 mm | - | - | - |
| 1778009587 | 32.22° C | 47% | 1001.9 hPa | 0 mm | - | - | - |
| 1778009285 | 32.22° C | 47% | 1001.9 hPa | 0 mm | - | - | - |
| 1778008982 | 31.67° C | 47% | 1002.1 hPa | 0 mm | - | - | - |
| 1778008680 | 31.67° C | 49% | 1002 hPa | 0 mm | - | - | - |
| 1778008378 | 31.11° C | 49% | 1001.9 hPa | 0 mm | - | - | - |
* Rain latest hour (hover to see other rain measurements)
** Current wind speed in m/s (hover to see current wind gust speed)